QPF
0.00 0.00 0.00 0.00 0.00 0.00 0.00 0.00 0.00 0.00 0.00 0.00 0.00 0.00 0.00 0.00 0.00 0.00 0.00 0.00 0.00 0.00 0.00 0.00 0.00 0.00 0.00 0.00 0.00 0.00 0.00 0.00 0.00 0.00 0.00 0.00 0.00 0.00 0.00 0.00 0.00 0.00 0.00
0.00 0.00 0.00 0.00 0.00 0.00 0.00 0.00 0.00 0.00 0.00 0.00 0.00 0.00 0.00 0.00 0.00 0.00 0.00 0.00 0.00 0.00 0.00 0.00 0.00 0.00 0.00 0.00 0.00 0.00 0.00 0.00 0.00 0.00 0.00 0.00 0.00 0.00 0.00 0.00 0.00 0.00 0.00
0.00 0.00 0.00 0.00 0.00 0.00 0.00 0.00 0.00 0.00 0.00 0.00 0.00 0.00 0.00 0.00 0.00 0.00 0.00 0.00 0.00 0.00 0.00 0.00 0.00 0.00 0.00 0.00 0.00 0.00 0.00 0.00 0.00 0.00 0.00 0.00 0.00 0.00 0.00 0.00 0.00 0.00 0.00
0.00 0.00 0.00 0.00 0.00 0.00 0.00 0.00 0.00 0.00 0.00 0.00 0.00 0.00 0.00 0.00 0.00 0.00 0.00 0.00 0.00 0.00 0.00 0.00 0.00 0.00 0.00 0.00 0.00 0.00 0.00 0.00 0.00 0.00 0.00 0.00 0.00 0.00 0.00 0.00 0.00 0.00 0.00
0.00 0.00 0.00 0.00 0.00 0.00 0.00 0.00 0.00 0.00 0.00 0.00 0.00 0.00 0.00 0.00 0.00 0.00 0.00 0.00 0.00 0.00 0.00 0.00 0.00 0.00 0.00 0.00 0.00 0.00 0.00 0.00 0.00 0.00 0.00 0.00 0.00 0.00 0.00 0.00 0.00 0.00 0.00
0.00 0.00 0.00 0.00 0.00 0.00 0.00 0.00 0.00 0.00 0.00 0.00 0.00 0.00 0.00 0.00 0.00 0.00 0.00 0.00 0.00 0.00 0.00 0.00 0.00 0.00 0.00 0.00 0.00 0.00 0.00 0.00 0.00 0.00 0.00 0.00 0.00 0.00 0.00 0.00 0.00 0.00 0.00
0.00 0.00 0.00 0.00 0.00 0.00 0.00 0.00 0.00 0.00 0.00 0.00 0.00 0.00 0.00 0.00 0.00 0.00 0.00 0.00 0.00 0.00 0.00 0.00 0.00 0.00 0.00 0.00 0.00 0.00 0.00 0.00 0.00 0.00 0.00 0.00 0.00 0.00 0.00 0.00 0.00 0.00 0.00
0.00 0.00 0.00 0.00 0.00 0.00 0.00 0.00 0.00 0.00 0.00 0.00 0.00 0.00 0.00 0.00 0.00 0.00 0.00 0.00 0.00 0.00 0.00 0.00 0.00 0.00 0.00 0.00 0.00 0.00 0.00 0.00 0.00 0.00 0.00 0.00 0.00 0.00 0.00 0.00 0.01 0.01 0.01
0.01 0.00 0.00 0.00 0.00 0.00 0.00 0.00 0.00 0.00 0.00 0.00 0.00 0.00 0.00 0.00 0.00 0.00 0.00 0.00 0.00 0.00 0.00 0.00 0.00 0.00 0.00 0.00 0.00 0.00 0.00 0.00 0.00 0.00 0.00 0.00 0.00 0.00 0.01 0.01 0.01 0.02 0.02
0.00 0.00 0.00 0.00 0.00 0.00 0.00 0.00 0.00 0.00 0.00 0.00 0.00 0.00 0.00 0.00 0.00 0.00 0.00 0.00 0.00 0.00 0.00 0.00 0.00 0.00 0.00 0.00 0.00 0.00 0.00 0.00 0.00 0.00 0.00 0.00 0.01 0.01 0.02 0.02 0.02 0.03 0.03
0.00 0.00 0.00 0.00 0.00 0.00 0.00 0.00 0.00 0.00 0.00 0.00 0.00 0.00 0.00 0.00 0.00 0.00 0.00 0.00 0.00 0.00 0.00 0.00 0.00 0.00 0.00 0.00 0.00 0.00 0.00 0.00 0.00 0.00 0.00 0.01 0.01 0.02 0.02 0.03 0.04 0.04 0.04
0.00 0.00 0.00 0.00 0.00 0.00 0.00 0.00 0.00 0.00 0.00 0.00 0.00 0.00 0.00 0.00 0.00 0.00 0.00 0.00 0.00 0.00 0.00 0.00 0.00 0.00 0.00 0.00 0.00 0.00 0.00 0.00 0.00 0.00 0.01 0.01 0.02 0.03 0.03 0.04 0.04 0.05 0.05
0.00 0.00 0.00 0.00 0.00 0.00 0.00 0.00 0.00 0.00 0.00 0.00 0.00 0.00 0.00 0.00 0.00 0.00 0.00 0.00 0.00 0.00 0.00 0.00 0.00 0.00 0.00 0.00 0.00 0.00 0.00 0.00 0.00 0.00 0.01 0.01 0.02 0.02 0.03 0.04 0.04 0.05 0.06
0.00 0.00 0.00 0.00 0.00 0.00 0.00 0.00 0.00 0.00 0.00 0.00 0.00 0.00 0.00 0.00 0.00 0.00 0.00 0.00 0.00 0.00 0.00 0.00 0.00 0.00 0.00 0.00 0.00 0.00 0.00 0.00 0.00 0.00 0.01 0.01 0.02 0.02 0.02 0.03 0.04 0.05 0.05
0.00 0.00 0.00 0.00 0.00 0.00 0.00 0.00 0.00 0.00 0.00 0.00 0.00 0.00 0.00 0.00 0.00 0.00 0.00 0.00 0.00 0.00 0.00 0.00 0.00 0.00 0.00 0.00 0.00 0.00 0.00 0.00 0.00 0.01 0.01 0.01 0.01 0.02 0.02 0.03 0.04 0.05 0.05
0.00 0.00 0.00 0.00 0.00 0.00 0.00 0.00 0.00 0.00 0.00 0.00 0.00 0.00 0.00 0.00 0.00 0.00 0.00 0.00 0.00 0.00 0.00 0.00 0.00 0.00 0.00 0.00 0.00 0.00 0.00 0.00 0.00 0.00 0.01 0.02 0.02 0.02 0.03 0.03 0.03 0.04 0.04
0.00 0.00 0.00 0.00 0.00 0.00 0.00 0.00 0.00 0.00 0.00 0.00 0.00 0.00 0.00 0.00 0.00 0.00 0.00 0.00 0.00 0.00 0.00 0.00 0.00 0.00 0.00 0.00 0.00 0.00 0.00 0.00 0.00 0.01 0.01 0.02 0.02 0.02 0.02 0.03 0.03 0.04 0.05
0.00 0.00 0.00 0.00 0.00 0.00 0.00 0.00 0.00 0.00 0.00 0.00 0.00 0.00 0.00 0.00 0.00 0.00 0.00 0.00 0.00 0.00 0.00 0.00 0.00 0.00 0.00 0.00 0.00 0.00 0.00 0.00 0.00 0.00 0.01 0.01 0.01 0.01 0.02 0.02 0.03 0.04 0.05
0.00 0.00 0.00 0.00 0.00 0.00 0.00 0.00 0.00 0.00 0.00 0.00 0.00 0.00 0.00 0.00 0.00 0.00 0.00 0.00 0.00 0.00 0.00 0.01 0.00 0.00 0.00 0.00 0.00 0.00 0.00 0.00 0.00 0.00 0.00 0.00 0.00 0.01 0.02 0.02 0.03 0.04 0.04
0.00 0.00 0.00 0.00 0.00 0.00 0.00 0.00 0.00 0.00 0.00 0.00 0.00 0.00 0.00 0.00 0.00 0.00 0.00 0.00 0.01 0.01 0.01 0.01 0.01 0.01 0.01 0.00 0.00 0.00 0.00 0.00 0.00 0.00 0.00 0.00 0.00 0.00 0.01 0.01 0.01 0.01 0.01
0.00 0.00 0.00 0.00 0.00 0.00 0.00 0.00 0.00 0.00 0.00 0.00 0.00 0.00 0.00 0.00 0.00 0.00 0.00 0.01 0.01 0.01 0.02 0.03 0.03 0.02 0.01 0.00 0.00 0.00 0.00 0.00 0.00 0.00 0.00 0.00 0.00 0.00 0.00 0.00 0.00 0.00 0.00
0.00 0.00 0.00 0.00 0.00 0.00 0.00 0.00 0.00 0.00 0.00 0.00 0.00 0.00 0.00 0.00 0.00 0.00 0.00 0.01 0.02 0.03 0.04 0.04 0.03 0.01 0.00 0.00 0.00 0.01 0.02 0.02 0.02 0.00 0.00 0.00 0.00 0.00 0.00 0.00 0.00 0.00 0.01
0.00 0.00 0.00 0.00 0.00 0.00 0.00 0.00 0.00 0.00 0.00 0.00 0.00 0.00 0.00 0.00 0.00 0.00 0.00 0.01 0.02 0.02 0.03 0.02 0.01 0.00 0.00 0.00 0.02 0.04 0.03 0.02 0.01 0.00 0.01 0.00 0.00 0.00 0.00 0.00 0.00 0.00 0.01
0.00 0.00 0.00 0.00 0.00 0.00 0.00 0.00 0.00 0.00 0.00 0.00 0.00 0.00 0.00 0.00 0.00 0.00 0.01 0.03 0.02 0.01 0.00 0.00 0.00 0.00 0.01 0.01 0.03 0.04 0.02 0.02 0.01 0.00 0.00 0.00 0.00 0.00 0.00 0.00 0.00 0.00 0.00
0.00 0.00 0.00 0.00 0.00 0.00 0.00 0.00 0.00 0.00 0.00 0.00 0.00 0.00 0.00 0.00 0.00 0.01 0.03 0.03 0.01 0.00 0.00 0.00 0.01 0.01 0.01 0.00 0.00 0.02 0.03 0.03 0.01 0.00 0.00 0.00 0.00 0.00 0.00 0.00 0.00 0.00 0.00
0.00 0.00 0.00 0.00 0.00 0.00 0.00 0.00 0.00 0.00 0.00 0.00 0.00 0.00 0.00 0.00 0.01 0.02 0.02 0.01 0.00 0.00 0.01 0.01 0.00 0.00 0.00 0.00 0.00 0.01 0.04 0.07 0.04 0.02 0.00 0.02 0.02 0.02 0.03 0.00 0.00 0.00 0.00
MSLP
1015.32 1015.67 1016.00 1016.29 1016.54 1016.76 1016.93 1017.06 1017.13 1017.14 1017.09 1016.98 1016.85 1016.71 1016.60 1016.54 1016.54 1016.61 1016.72 1016.84 1016.94 1016.99 1016.97 1016.86 1016.68 1016.44 1016.17 1015.90 1015.65 1015.42 1015.22 1015.04 1014.87 1014.67 1014.46 1014.22 1013.95 1013.68 1013.41 1013.15 1012.92 1012.71 1012.53
1015.21 1015.61 1015.97 1016.30 1016.59 1016.84 1017.04 1017.19 1017.28 1017.30 1017.25 1017.16 1017.03 1016.90 1016.80 1016.75 1016.77 1016.87 1017.01 1017.17 1017.32 1017.42 1017.43 1017.36 1017.19 1016.95 1016.66 1016.36 1016.06 1015.79 1015.55 1015.34 1015.13 1014.92 1014.69 1014.44 1014.17 1013.88 1013.58 1013.30 1013.04 1012.80 1012.58
1015.14 1015.58 1015.98 1016.34 1016.65 1016.92 1017.14 1017.30 1017.40 1017.44 1017.40 1017.31 1017.19 1017.06 1016.96 1016.92 1016.94 1017.04 1017.20 1017.39 1017.56 1017.69 1017.74 1017.70 1017.55 1017.32 1017.02 1016.70 1016.37 1016.05 1015.77 1015.51 1015.27 1015.03 1014.79 1014.53 1014.25 1013.96 1013.67 1013.39 1013.11 1012.86 1012.64
1015.13 1015.61 1016.04 1016.42 1016.75 1017.03 1017.26 1017.42 1017.53 1017.56 1017.53 1017.45 1017.33 1017.20 1017.09 1017.04 1017.05 1017.13 1017.28 1017.46 1017.64 1017.79 1017.86 1017.85 1017.73 1017.51 1017.22 1016.88 1016.53 1016.18 1015.85 1015.54 1015.26 1015.00 1014.73 1014.47 1014.19 1013.91 1013.63 1013.36 1013.09 1012.84 1012.61
1015.20 1015.71 1016.17 1016.56 1016.90 1017.18 1017.40 1017.56 1017.66 1017.69 1017.66 1017.58 1017.46 1017.33 1017.21 1017.13 1017.10 1017.15 1017.26 1017.41 1017.58 1017.72 1017.81 1017.81 1017.72 1017.53 1017.26 1016.93 1016.56 1016.18 1015.82 1015.47 1015.15 1014.84 1014.55 1014.27 1014.00 1013.72 1013.45 1013.18 1012.93 1012.68 1012.45
1015.34 1015.88 1016.35 1016.76 1017.09 1017.36 1017.57 1017.72 1017.81 1017.84 1017.81 1017.74 1017.62 1017.48 1017.33 1017.22 1017.15 1017.13 1017.18 1017.28 1017.40 1017.52 1017.60 1017.62 1017.56 1017.40 1017.16 1016.85 1016.49 1016.10 1015.71 1015.32 1014.96 1014.61 1014.29 1013.98 1013.69 1013.41 1013.13 1012.86 1012.61 1012.36 1012.11
1015.53 1016.09 1016.57 1016.98 1017.30 1017.56 1017.76 1017.89 1017.98 1018.01 1017.99 1017.93 1017.81 1017.67 1017.50 1017.35 1017.22 1017.13 1017.10 1017.12 1017.17 1017.25 1017.31 1017.33 1017.30 1017.18 1016.98 1016.70 1016.36 1015.98 1015.57 1015.15 1014.74 1014.36 1013.99 1013.64 1013.32 1013.00 1012.71 1012.42 1012.14 1011.87 1011.60
1015.73 1016.30 1016.78 1017.19 1017.51 1017.76 1017.94 1018.08 1018.17 1018.21 1018.21 1018.16 1018.06 1017.92 1017.74 1017.55 1017.35 1017.18 1017.06 1016.98 1016.96 1016.96 1016.99 1017.00 1016.98 1016.90 1016.74 1016.50 1016.20 1015.83 1015.42 1014.98 1014.54 1014.11 1013.69 1013.29 1012.91 1012.56 1012.21 1011.88 1011.56 1011.24 1010.94
1015.90 1016.47 1016.96 1017.37 1017.68 1017.93 1018.12 1018.26 1018.37 1018.44 1018.47 1018.45 1018.38 1018.25 1018.06 1017.83 1017.58 1017.32 1017.10 1016.91 1016.79 1016.72 1016.68 1016.67 1016.65 1016.59 1016.47 1016.28 1016.02 1015.68 1015.27 1014.83 1014.36 1013.88 1013.41 1012.96 1012.52 1012.10 1011.69 1011.30 1010.91 1010.54 1010.19
1016.01 1016.59 1017.08 1017.49 1017.81 1018.07 1018.27 1018.44 1018.58 1018.68 1018.76 1018.78 1018.75 1018.63 1018.45 1018.19 1017.88 1017.54 1017.22 1016.93 1016.70 1016.53 1016.43 1016.37 1016.33 1016.28 1016.19 1016.04 1015.81 1015.49 1015.11 1014.66 1014.18 1013.67 1013.15 1012.63 1012.13 1011.64 1011.17 1010.71 1010.26 1009.83 1009.42
1016.06 1016.64 1017.14 1017.56 1017.90 1018.18 1018.40 1018.60 1018.78 1018.93 1019.05 1019.13 1019.13 1019.04 1018.86 1018.59 1018.23 1017.82 1017.41 1017.01 1016.67 1016.40 1016.21 1016.09 1016.02 1015.95 1015.87 1015.74 1015.54 1015.25 1014.88 1014.45 1013.95 1013.42 1012.87 1012.31 1011.75 1011.20 1010.66 1010.14 1009.63 1009.15 1008.69
1016.06 1016.65 1017.16 1017.60 1017.96 1018.26 1018.52 1018.75 1018.97 1019.16 1019.33 1019.44 1019.48 1019.43 1019.26 1018.97 1018.58 1018.12 1017.62 1017.13 1016.69 1016.32 1016.04 1015.84 1015.70 1015.60 1015.50 1015.37 1015.18 1014.91 1014.56 1014.13 1013.64 1013.10 1012.52 1011.94 1011.34 1010.75 1010.17 1009.60 1009.05 1008.52 1008.03
1016.04 1016.65 1017.18 1017.63 1018.02 1018.34 1018.63 1018.88 1019.13 1019.35 1019.55 1019.69 1019.76 1019.73 1019.57 1019.29 1018.88 1018.38 1017.82 1017.26 1016.72 1016.26 1015.88 1015.58 1015.37 1015.21 1015.07 1014.91 1014.71 1014.44 1014.10 1013.68 1013.19 1012.66 1012.08 1011.48 1010.87 1010.26 1009.65 1009.05 1008.48 1007.93 1007.42
1016.04 1016.67 1017.22 1017.70 1018.10 1018.44 1018.74 1019.00 1019.25 1019.47 1019.68 1019.83 1019.92 1019.90 1019.75 1019.48 1019.07 1018.55 1017.96 1017.34 1016.74 1016.19 1015.72 1015.33 1015.03 1014.79 1014.58 1014.37 1014.14 1013.85 1013.50 1013.08 1012.60 1012.07 1011.50 1010.90 1010.29 1009.67 1009.06 1008.46 1007.88 1007.34 1006.83
1016.10 1016.76 1017.33 1017.82 1018.23 1018.57 1018.85 1019.09 1019.31 1019.52 1019.70 1019.84 1019.92 1019.90 1019.77 1019.51 1019.12 1018.61 1018.01 1017.37 1016.72 1016.11 1015.56 1015.08 1014.68 1014.35 1014.06 1013.78 1013.48 1013.15 1012.78 1012.35 1011.87 1011.34 1010.77 1010.18 1009.58 1008.97 1008.36 1007.77 1007.20 1006.66 1006.17
1016.25 1016.93 1017.51 1018.01 1018.40 1018.71 1018.96 1019.15 1019.32 1019.47 1019.60 1019.70 1019.76 1019.74 1019.62 1019.38 1019.02 1018.54 1017.96 1017.33 1016.66 1016.01 1015.40 1014.84 1014.35 1013.92 1013.53 1013.15 1012.78 1012.40 1011.98 1011.52 1011.02 1010.48 1009.91 1009.32 1008.71 1008.11 1007.51 1006.93 1006.38 1005.85 1005.37
1016.49 1017.18 1017.77 1018.25 1018.61 1018.88 1019.06 1019.18 1019.26 1019.33 1019.39 1019.43 1019.45 1019.42 1019.31 1019.10 1018.79 1018.36 1017.82 1017.22 1016.57 1015.90 1015.25 1014.62 1014.05 1013.52 1013.02 1012.55 1012.10 1011.63 1011.15 1010.64 1010.10 1009.53 1008.94 1008.33 1007.71 1007.10 1006.50 1005.91 1005.36 1004.85 1004.38
1016.81 1017.50 1018.07 1018.52 1018.84 1019.03 1019.13 1019.16 1019.15 1019.12 1019.10 1019.07 1019.05 1019.00 1018.90 1018.73 1018.46 1018.09 1017.62 1017.06 1016.44 1015.77 1015.10 1014.42 1013.78 1013.16 1012.57 1012.01 1011.46 1010.90 1010.35 1009.77 1009.18 1008.56 1007.92 1007.27 1006.62 1005.97 1005.34 1004.74 1004.18 1003.66 1003.19
1017.17 1017.85 1018.39 1018.79 1019.05 1019.17 1019.18 1019.11 1019.00 1018.88 1018.77 1018.68 1018.61 1018.54 1018.44 1018.30 1018.08 1017.77 1017.36 1016.86 1016.27 1015.62 1014.93 1014.23 1013.53 1012.84 1012.17 1011.52 1010.89 1010.26 1009.62 1008.98 1008.31 1007.63 1006.93 1006.22 1005.50 1004.79 1004.11 1003.46 1002.87 1002.33 1001.85
1017.55 1018.19 1018.69 1019.03 1019.22 1019.27 1019.19 1019.03 1018.83 1018.62 1018.44 1018.29 1018.17 1018.08 1017.99 1017.87 1017.69 1017.42 1017.06 1016.60 1016.04 1015.41 1014.72 1014.00 1013.27 1012.53 1011.81 1011.10 1010.40 1009.70 1009.00 1008.29 1007.55 1006.79 1006.02 1005.22 1004.42 1003.64 1002.88 1002.16 1001.51 1000.92 1000.41
1017.90 1018.49 1018.93 1019.21 1019.33 1019.31 1019.16 1018.93 1018.66 1018.39 1018.14 1017.94 1017.79 1017.68 1017.58 1017.46 1017.29 1017.04 1016.70 1016.26 1015.73 1015.11 1014.43 1013.70 1012.95 1012.20 1011.45 1010.70 1009.97 1009.23 1008.48 1007.71 1006.92 1006.09 1005.23 1004.35 1003.46 1002.58 1001.73 1000.92 1000.19 999.54 998.97
1018.20 1018.72 1019.09 1019.31 1019.37 1019.29 1019.09 1018.81 1018.50 1018.18 1017.90 1017.67 1017.48 1017.34 1017.21 1017.06 1016.88 1016.62 1016.28 1015.84 1015.31 1014.70 1014.02 1013.30 1012.55 1011.80 1011.05 1010.31 1009.57 1008.82 1008.05 1007.26 1006.42 1005.54 1004.61 1003.64 1002.66 1001.68 1000.73 999.82 998.99 998.25 997.61
1018.43 1018.87 1019.17 1019.32 1019.33 1019.21 1018.98 1018.67 1018.34 1018.01 1017.70 1017.44 1017.23 1017.04 1016.87 1016.68 1016.45 1016.16 1015.78 1015.31 1014.76 1014.14 1013.47 1012.76 1012.03 1011.31 1010.59 1009.88 1009.17 1008.44 1007.69 1006.89 1006.03 1005.11 1004.13 1003.10 1002.03 1000.96 999.91 998.90 997.97 997.13 996.39
1018.58 1018.94 1019.16 1019.25 1019.22 1019.06 1018.82 1018.52 1018.18 1017.85 1017.54 1017.26 1017.01 1016.77 1016.54 1016.28 1015.98 1015.62 1015.18 1014.67 1014.09 1013.46 1012.79 1012.10 1011.41 1010.73 1010.06 1009.41 1008.74 1008.06 1007.34 1006.56 1005.71 1004.78 1003.76 1002.68 1001.56 1000.41 999.26 998.16 997.12 996.17 995.33
1018.67 1018.93 1019.08 1019.11 1019.04 1018.87 1018.63 1018.33 1018.01 1017.69 1017.37 1017.07 1016.78 1016.49 1016.19 1015.86 1015.47 1015.02 1014.51 1013.95 1013.33 1012.68 1012.02 1011.36 1010.71 1010.09 1009.49 1008.89 1008.29 1007.66 1006.99 1006.24 1005.40 1004.47 1003.44 1002.33 1001.16 999.95 998.74 997.55 996.42 995.36 994.39
1018.71 1018.88 1018.95 1018.93 1018.82 1018.64 1018.40 1018.12 1017.81 1017.50 1017.18 1016.86 1016.53 1016.18 1015.81 1015.39 1014.92 1014.39 1013.82 1013.19 1012.55 1011.89 1011.24 1010.61 1010.01 1009.44 1008.90 1008.36 1007.82 1007.23 1006.59 1005.87 1005.05 1004.12 1003.09 1001.97 1000.77 999.53 998.27 997.01 995.79 994.63 993.54
Thickness
5671 5668 5664 5660 5658 5656 5655 5654 5653 5651 5649 5647 5646 5645 5644 5642 5640 5637 5632 5628 5628 5627 5625 5624 5623 5623 5623 5623 5624 5624 5624 5625 5625 5626 5627 5628 5630 5631 5632 5634 5635 5637 5639
5665 5660 5656 5652 5650 5648 5647 5646 5645 5643 5641 5639 5638 5636 5635 5633 5631 5628 5625 5619 5616 5615 5613 5611 5610 5610 5611 5612 5613 5613 5613 5613 5614 5615 5616 5617 5618 5619 5621 5622 5623 5625 5627
5658 5653 5649 5645 5642 5641 5639 5637 5636 5634 5632 5631 5630 5628 5627 5625 5622 5619 5615 5611 5608 5604 5602 5600 5599 5599 5600 5601 5602 5603 5603 5603 5604 5604 5605 5606 5607 5608 5609 5610 5611 5613 5615
5652 5647 5643 5639 5635 5633 5631 5629 5628 5626 5625 5624 5624 5622 5619 5615 5613 5610 5606 5602 5599 5596 5593 5590 5589 5589 5589 5590 5591 5592 5592 5592 5593 5593 5593 5594 5595 5596 5597 5598 5599 5600 5602
5646 5641 5636 5631 5628 5625 5623 5621 5619 5617 5616 5614 5615 5614 5612 5609 5605 5600 5597 5592 5589 5586 5584 5582 5580 5579 5579 5579 5579 5580 5580 5580 5580 5581 5581 5582 5582 5583 5584 5584 5585 5586 5589
5639 5634 5628 5625 5621 5618 5616 5614 5610 5607 5605 5604 5606 5605 5602 5600 5596 5592 5588 5584 5580 5576 5574 5572 5572 5572 5570 5569 5568 5568 5567 5567 5567 5567 5568 5568 5569 5569 5570 5571 5571 5573 5575
5631 5627 5622 5617 5614 5612 5609 5607 5603 5600 5596 5594 5596 5597 5595 5589 5587 5583 5579 5576 5573 5568 5565 5563 5561 5560 5560 5559 5557 5555 5554 5553 5553 5553 5553 5554 5554 5555 5556 5557 5557 5559 5560
5623 5619 5615 5610 5606 5603 5600 5597 5594 5591 5586 5582 5583 5585 5586 5586 5579 5573 5569 5566 5563 5559 5556 5552 5548 5546 5546 5545 5544 5541 5539 5537 5536 5536 5536 5537 5538 5539 5540 5541 5542 5544 5545
5613 5610 5607 5602 5598 5595 5591 5587 5583 5581 5578 5571 5568 5570 5570 5572 5567 5566 5559 5554 5550 5547 5542 5537 5534 5531 5529 5528 5528 5526 5522 5519 5518 5519 5519 5519 5519 5520 5522 5523 5525 5527 5528
5604 5601 5597 5593 5589 5585 5581 5576 5572 5568 5565 5562 5556 5551 5550 5549 5548 5555 5556 5548 5542 5535 5529 5524 5520 5518 5515 5512 5510 5507 5504 5502 5501 5500 5500 5501 5501 5502 5503 5504 5505 5506 5508
5594 5591 5587 5583 5580 5575 5570 5565 5560 5556 5552 5549 5545 5541 5538 5534 5532 5531 5540 5540 5535 5528 5522 5515 5510 5506 5502 5498 5495 5493 5488 5485 5483 5482 5482 5482 5482 5482 5482 5482 5482 5482 5483
5585 5581 5577 5573 5569 5564 5559 5554 5549 5544 5539 5535 5531 5527 5525 5523 5523 5518 5520 5522 5521 5517 5511 5505 5499 5494 5488 5483 5480 5476 5472 5469 5467 5465 5464 5463 5461 5459 5458 5456 5455 5454 5454
5579 5572 5568 5563 5558 5552 5547 5542 5537 5532 5527 5523 5519 5515 5511 5508 5504 5500 5499 5501 5502 5502 5499 5494 5487 5480 5473 5467 5463 5458 5454 5451 5448 5445 5442 5439 5435 5431 5427 5423 5420 5418 5417
5573 5565 5558 5553 5547 5541 5536 5531 5526 5520 5515 5511 5506 5502 5498 5494 5490 5486 5482 5480 5485 5490 5486 5481 5472 5461 5452 5446 5441 5435 5432 5428 5423 5417 5412 5406 5400 5394 5388 5383 5379 5377 5375
5563 5555 5548 5542 5536 5530 5525 5520 5515 5509 5504 5499 5495 5490 5485 5481 5475 5471 5466 5462 5460 5467 5473 5465 5454 5443 5432 5425 5418 5410 5406 5400 5392 5384 5376 5369 5362 5356 5350 5346 5343 5341 5340
5553 5545 5538 5532 5526 5519 5514 5509 5504 5498 5493 5489 5482 5477 5473 5467 5462 5457 5452 5447 5442 5441 5446 5447 5435 5425 5414 5405 5396 5387 5380 5371 5362 5352 5343 5337 5332 5329 5326 5325 5323 5322 5321
5542 5535 5528 5522 5515 5509 5504 5499 5494 5488 5483 5478 5472 5465 5460 5453 5448 5442 5437 5431 5426 5422 5426 5431 5417 5407 5396 5386 5377 5365 5353 5343 5335 5328 5322 5318 5317 5316 5315 5314 5313 5313 5312
5532 5525 5518 5512 5505 5499 5493 5489 5484 5478 5473 5467 5460 5454 5448 5441 5433 5428 5422 5416 5410 5405 5402 5407 5402 5389 5377 5363 5353 5343 5330 5320 5315 5313 5311 5310 5309 5309 5309 5308 5308 5308 5307
5520 5513 5507 5501 5494 5488 5483 5478 5473 5468 5462 5455 5448 5442 5435 5427 5421 5414 5407 5400 5394 5388 5381 5379 5380 5370 5358 5342 5332 5323 5314 5308 5305 5304 5304 5305 5305 5305 5305 5304 5304 5303 5303
5509 5502 5496 5489 5483 5477 5472 5467 5462 5457 5450 5444 5436 5428 5420 5413 5406 5399 5392 5385 5378 5370 5362 5355 5352 5345 5333 5321 5310 5307 5306 5300 5298 5297 5299 5301 5302 5302 5302 5301 5300 5298 5296
5497 5491 5485 5478 5472 5466 5461 5456 5451 5445 5439 5432 5425 5416 5408 5399 5390 5383 5375 5367 5358 5348 5338 5330 5324 5316 5309 5301 5296 5293 5293 5293 5292 5290 5296 5299 5299 5300 5300 5300 5298 5295 5291
5486 5480 5474 5467 5461 5455 5448 5442 5437 5433 5427 5420 5412 5405 5397 5388 5380 5371 5361 5349 5335 5324 5315 5305 5299 5291 5288 5285 5284 5282 5281 5284 5289 5288 5289 5295 5292 5296 5297 5297 5297 5293 5289
5475 5469 5463 5457 5451 5444 5436 5431 5425 5420 5415 5407 5400 5393 5386 5377 5366 5357 5346 5334 5320 5305 5292 5283 5279 5276 5276 5274 5273 5273 5274 5276 5280 5280 5280 5290 5291 5294 5295 5295 5294 5291 5288
5465 5459 5452 5446 5440 5433 5425 5420 5414 5410 5404 5396 5388 5380 5372 5362 5350 5339 5331 5320 5306 5292 5280 5272 5268 5267 5266 5265 5264 5264 5266 5270 5275 5275 5274 5281 5287 5290 5291 5292 5292 5291 5290
5454 5448 5442 5436 5430 5424 5415 5408 5403 5399 5394 5386 5377 5367 5356 5346 5334 5322 5312 5303 5292 5281 5271 5265 5262 5262 5261 5260 5258 5257 5259 5261 5269 5275 5271 5273 5280 5283 5285 5288 5293 5293 5294
5444 5438 5432 5426 5419 5413 5405 5398 5391 5388 5383 5376 5365 5354 5342 5329 5315 5302 5292 5284 5279 5273 5266 5262 5261 5261 5259 5257 5255 5252 5250 5251 5256 5264 5270 5268 5269 5269 5282 5291 5292 5293 5296